Location: Milton Keynes
(52.0316°N, 0.7531°W)
Time: 20:10:55
(UTC+00:00)

ISS - Pass Details

Date: 25 January 2019
Orbit: 403 x 411 km, 51.6° (Epoch: 18 February)

Event Time Altitude Azimuth Distance (km) Brightness Sun altitude
Rises 17:26:55 0° 195° (SSW) 2,322 0.6 -7.7°
Reaches altitude 10° 17:30:03 10° 162° (SSE) 1,470 -1.0 -8.1°
Maximum altitude 17:31:21 12° 139° (SE) 1,364 -1.4 -8.3°
Drops below altitude 10° 17:32:39 10° 115° (ESE) 1,476 -1.4 -8.5°
Enters shadow 17:33:25 - 104° (ESE) 1,631 -1.3 -8.6°
